This is the latest recevied weather packets stored in our database for station/object KJ5EHN. If no packets are shown the sender has not sent any weather packets the latest 1 day(s).
| Time | Temp. | Humidity | Pressure | Rain* | Wind** | Luminosity | Snow |
|---|---|---|---|---|---|---|---|
| 1778019323 | 30° C | 50% | 1003.9 hPa | 0 mm | 1.34 m/s, 59° | - | - |
| 1778019019 | 30° C | 50% | 1003.8 hPa | 0 mm | 1.34 m/s, 267° | - | - |
| 1778018716 | 30.56° C | 50% | 1003.5 hPa | 0 mm | 1.34 m/s, 0° | - | - |
| 1778018414 | 29.44° C | 51% | 1003.8 hPa | 0 mm | 1.34 m/s, 69° | - | - |
| 1778018112 | 30° C | 51% | 1003.7 hPa | 0 mm | 1.79 m/s, 315° | - | - |
| 1778017809 | 30.56° C | 53% | 1003.9 hPa | 0 mm | 0.89 m/s, 255° | - | - |
| 1778017508 | 30.56° C | 54% | 1003.8 hPa | 0 mm | 2.24 m/s, 156° | - | - |
| 1778017204 | 30.56° C | 57% | 1003.9 hPa | 0 mm | 2.24 m/s, 9° | - | - |
| 1778016902 | 31.11° C | 57% | 1003.8 hPa | 0 mm | 1.79 m/s, 175° | - | - |
| 1778016598 | 31.67° C | 55% | 1003.9 hPa | 0 mm | 2.68 m/s, 256° | - | - |
| 1778016294 | 31.11° C | 56% | 1003.9 hPa | 0 mm | 3.13 m/s, 236° | - | - |
| 1778015991 | 31.11° C | 57% | 1004.1 hPa | 0 mm | 2.24 m/s, 264° | - | - |
| 1778015689 | 31.67° C | 58% | 1004.1 hPa | 0 mm | 1.79 m/s, 224° | - | - |
| 1778015385 | 31.11° C | 57% | 1004.3 hPa | 0 mm | 0.89 m/s, 202° | - | - |
| 1778015082 | 31.67° C | 57% | 1004.3 hPa | 0 mm | 3.13 m/s, 255° | - | - |
| 1778014779 | 31.67° C | 58% | 1004.1 hPa | 0 mm | 1.34 m/s, 267° | - | - |
| 1778014478 | 30.56° C | 59% | 1004.4 hPa | 0 mm | 1.79 m/s, 20° | - | - |
| 1778014173 | 30° C | 60% | 1004.1 hPa | 0 mm | 2.24 m/s, 288° | - | - |
| 1778013872 | 30.56° C | 59% | 1004.4 hPa | 0 mm | 2.24 m/s, 315° | - | - |
| 1778013569 | 30.56° C | 59% | 1004 hPa | 0 mm | 1.79 m/s, 289° | - | - |
| 1778013265 | 30° C | 60% | 1004.3 hPa | 0 mm | 2.24 m/s, 315° | - | - |
| 1778012961 | 31.11° C | 59% | 1004.4 hPa | 0 mm | 1.79 m/s, 298° | - | - |
| 1778012658 | 30° C | 61% | 1004.5 hPa | 0 mm | 1.79 m/s, 287° | - | - |
| 1778012354 | 30° C | 60% | 1004.5 hPa | 0 mm | 2.24 m/s, 323° | - | - |
| 1778012051 | 30° C | 60% | 1004.7 hPa | 0 mm | 2.68 m/s, 180° | - | - |
* Rain latest hour (hover to see other rain measurements)
** Current wind speed in m/s (hover to see current wind gust speed)